PST,Max TemperatureF,Mean TemperatureF,Min TemperatureF,Max Dew PointF,MeanDew PointF,Min DewpointF,Max Humidity, Mean Humidity, Min Humidity, Max Sea Level PressureIn, Mean Sea Level PressureIn, Min Sea Level PressureIn, Max VisibilityMiles, Mean VisibilityMiles, Min VisibilityMiles, Max Wind SpeedMPH, Mean Wind SpeedMPH, Max Gust SpeedMPH,PrecipitationIn, CloudCover, Events, WindDirDegrees
2013-1-1,54,42,30,37,33,27,100,75,50,30.30,30.25,30.20,10,5,0,12,4,15,0.00,1,Fog,339
2013-1-2,52,39,26,40,32,25,100,80,59,30.29,30.23,30.19,9,2,0,7,2,,0.00,1,Fog,48
2013-1-3,55,42,29,41,34,29,100,80,59,30.31,30.26,30.21,6,2,0,6,1,8,0.00,1,Fog,335
2013-1-4,54,41,27,41,33,26,100,80,59,30.36,30.28,30.22,3,1,0,7,1,8,0.00,1,Fog,69
2013-1-5,60,45,29,43,34,27,100,75,49,30.30,30.23,30.11,10,2,0,24,4,31,0.01,1,Fog-Rain,111
2013-1-6,52,47,41,45,43,41,96,84,71,30.19,30.14,30.10,10,9,5,16,8,21,0.12,6,Rain,301
2013-1-7,51,44,36,43,40,34,100,83,66,30.30,30.22,30.14,9,5,2,9,2,12,0.00,6,,130
2013-1-8,54,42,30,42,35,28,100,82,64,30.29,30.22,30.19,7,3,0,6,0,7,0.00,1,Fog,112
2013-1-9,57,45,33,47,40,33,100,84,67,30.19,30.09,29.97,6,2,0,26,3,31,0.02,3,Fog-Rain,297
2013-1-10,50,43,35,43,34,30,96,73,50,30.17,30.09,30.05,10,10,6,18,8,24,0.01,2,Rain,316
2013-1-11,50,38,25,33,29,23,92,69,46,30.27,30.19,30.14,10,10,7,15,4,20,0.00,2,,316
2013-1-12,50,38,26,32,28,23,92,71,50,30.27,30.21,30.16,10,6,0,8,2,10,0.00,1,Fog,267
2013-1-13,50,37,24,30,27,22,92,71,50,30.28,30.21,30.17,10,9,6,8,3,12,0.00,0,,313
2013-1-14,49,36,22,27,24,19,88,65,42,30.45,30.38,30.25,10,10,7,7,2,8,0.00,0,,299
2013-1-15,54,39,23,30,25,21,92,62,32,30.53,30.47,30.44,10,6,2,12,1,,0.00,0,,52
2013-1-16,58,41,23,32,27,21,92,64,35,30.49,30.40,30.30,9,6,2,5,0,8,0.00,0,,-1
2013-1-17,63,44,24,36,29,21,100,67,34,30.33,30.27,30.19,7,4,0,4,0,,0.00,0,Fog,80
2013-1-18,65,45,25,37,30,24,96,65,34,30.28,30.22,30.16,6,3,0,7,2,8,0.00,0,Fog,346
2013-1-19,65,46,26,41,34,25,100,70,40,30.31,30.23,30.18,5,2,0,6,1,,0.00,1,Fog,337
2013-1-20,63,45,26,42,34,26,100,72,43,30.28,30.24,30.16,6,2,0,7,2,9,0.00,1,Fog,319
2013-1-21,67,48,28,43,34,27,100,67,34,30.22,30.19,30.13,6,2,0,7,2,10,0.00,0,Fog,42
2013-1-22,66,48,29,43,35,27,100,70,40,30.18,30.13,30.06,5,2,0,8,2,10,0.00,0,Fog,37
2013-1-23,62,50,37,45,41,36,92,70,47,30.11,30.05,30.01,10,5,2,13,4,17,T,3,,80
2013-1-24,63,56,49,52,49,43,93,76,59,30.21,30.14,30.06,6,3,1,12,5,14,0.08,7,Rain,306
2013-1-25,58,55,51,54,52,50,100,93,86,30.21,30.14,30.06,10,3,0,8,2,,0.01,8,Fog-Rain,333
2013-1-26,60,54,47,54,51,39,100,82,63,30.05,30.01,29.97,10,3,0,17,3,23,0.00,7,Fog,313
2013-1-27,56,46,35,41,36,30,86,67,47,30.16,30.10,30.02,10,10,10,22,9,29,0.00,3,,324
2013-1-28,55,42,28,35,32,27,92,68,43,30.28,30.21,30.14,10,10,9,17,4,21,0.00,0,,334
2013-1-29,56,43,29,38,33,27,100,74,47,30.35,30.31,30.27,10,7,2,16,2,,0.00,0,,33
2013-1-30,60,45,29,41,35,29,100,73,46,30.40,30.33,30.30,10,5,0,8,1,,0.00,0,Fog,75
2013-1-31,67,50,32,44,37,30,96,68,40,30.32,30.27,30.19,9,4,0,7,1,12,0.00,0,Fog,333